Regional Weather Roundup
Issued by NWS New Orleans/Baton Rouge, LA

Home | Current Version | Previous Version | Text Only | Print | Product List | Glossary Off
Versions: 1 2 3 4 5 6 7 8 9 10 11 12 13 14 15 16 17 18 19 20 21 22 23 24 25 26 27 28 29 30 31 32 33 34 35 36 37 38 39 40 41 42 43 44 45 46 47 48 49 50

348
ASUS44 KLIX 222305
RWRLIX
NEW ORLEANS REGIONAL WEATHER ROUNDUP
NATIONAL WEATHER SERVICE NEW ORLEANS LA
500 PM CST MON DEC 22 2014

NOTE: "FAIR" INDICATES FEW OR NO CLOUDS BELOW 12,000 FEET WITH NO
      SIGNIFICANT WEATHER AND/OR OBSTRUCTIONS TO VISIBILITY.
      SKY/WX - SKY CONDITION AND SIGNIFICANT WEATHER.
      TMP - AIR TEMPERATURE.     DP    - DEWPOINT TEMPERATURE.
      RH  - RELATIVE HUMIDITY.   PRES  - PRESSURE.
      HI  - HEAT INDEX.          WCI   - WIND CHILL INDEX.

*  THESE STATIONS ARE NOT NWS OR FAA STATIONS AND ARE NOT UNDER
   NWS QUALITY CONTROL.

LAZ038-040-048-061>063-065>067-069-230000-
SOUTHEAST LOUISIANA

CITY           SKY/WX    TMP DP  RH WIND       PRES   REMARKS
N.O. AUDUBON   NOT AVBL
N.O. INTL ARPT MOCLDY    72  67  84 S14       29.70S
N.O. LAKEFRONT MOCLDY    73  66  78 SW17      29.71S
N.O. DOWNTOWN* CLOUDY    72  64  78 S14G21    29.72S
SLIDELL        LGT RAIN  70  66  87 S9        29.70S
BATON ROUGE    MOCLDY    72  62  71 S15G23    29.66S
BOOTHVILLE     PTCLDY    69  67  93 S12       29.77R
BELLE CHASSE   MOCLDY    71  67  87 S14       29.72S
BOGALUSA*        N/A     74  64  70 S12       29.70S
GALLIANO*      PTCLDY    71  67  87 MISG      29.74S
NEW ROADS*     MOCLDY    72  62  70 S13G22    29.65R
GONZALES*      MOCLDY    73  66  80 S8        29.68S
HAMMOND*       NOT AVBL
HOUMA*         MOCLDY    72  70  94 S15       29.72S
PORT FOURCHON* MOCLDY    70  68  94 S8G15     29.78R FOG

$$

MSZ070-080>082-230000-
SOUTHERN MISSISSIPPI

CITY           SKY/WX    TMP DP  RH WIND       PRES   REMARKS
MCCOMB         PTCLDY    67  63  87 S6        29.66F
GULFPORT       MOCLDY    67  64  90 S7        29.73S
BILOXI         MOCLDY    64  64 100 S12       29.74S
PASCAGOULA     MOCLDY    69  65  86 S9        29.75S
STENNIS ARPT*  MOCLDY    70  63  78 S10G16    29.72S

$$

COASTAL OBSERVATIONS
LAKE AND NEARSHORE STATIONS

STATION/POSITION TIME  TEMP    WIND        PRES    WAVE
                       AIR SEA DIR/SP/G            HT/PER
                 (UTC) (F)     (DEG/KT/KT) (MB)    (FT/S)
PASCAGOULA       2300   65     190/ 11/ 14 1007.0
WAVELAND YACHT   2300   64     190/  7/  9 1005.9
GRAND ISLE       2300   68 62  190/  6/ 10 1007.9
SOUTHWEST PASS   2300   65                 1008.3
NEW CANAL        2300   71 58  190/  8/ 12 1006.3
SHELL BEACH      2300   69 59  190/ 13/ 16 1006.6

OFFSHORE STATIONS

STATION/POSITION TIME  TEMP    WIND        PRES    WAVE
                       AIR SEA DIR/SP/G            HT/PER
                 (UTC) (F)     (DEG/KT/KT) (MB)    (FT/S)
64 S DAUPHIN ISL 2300   74 74  220/ 12/ 16 1008.3    3/ 4

$$




USA.gov is the U.S. government's official web portal to all federal, state and local government web resources and services.